{"data":{"norad_id":58195,"intl_designator":"2023-167W","name":"STARLINK-30827","alt_names":[],"object_type":"PAYLOAD","status":"ACTIVE","operator":null,"country":"US","launch_date":"2023-10-30","launch_site_code":"AFETR","launch_vehicle":null,"mission":null,"orbit_class":"UNKNOWN","rcs_meters":null,"size_class":null,"mass_kg":null,"dimensions":null,"purposes":["comms"],"wikipedia_slug":null,"has_3d_model":false,"image_url":null,"decayed_at":null,"tle_current":{"epoch":"2026-09-20T23:02:16.439136Z","epoch_age_seconds":103959,"freshness":"FRESH","line1":"1 58195U 23167W   26263.95991249 -.00007350  00000+0 -25771-3 0  9995","line2":"2 58195  43.0001 120.2231 0001552 269.0701  90.9973 15.27595367160854","mean_motion":15.27595367,"eccentricity":0.0001552,"inclination_deg":43.0001,"raan_deg":120.2231,"arg_perigee_deg":269.0701,"mean_anomaly_deg":90.9973,"bstar":-0.00025771,"rev_number":16085,"period_min":94.265800427765,"perigee_km":481.9382331584,"apogee_km":484.06793103988,"semimajor_km":6861.1400820991,"source":"CELESTRAK","updated_at":"2026-09-21T09:00:33.830199Z"}}}